RYR9MA LOWW-LBSF

Flight info

Callsign RYR9MA
Flight time 1h 16m
Altitude 37000
Route ARSIN DCT NALOX DCT NIKAB DCT BABIT DCT LULIK DCT NIVIS DCT BGD DCT RAVAK DCT NISVA
Aircraft A320/M-SDE3FGHIRWY/LB1

Departure

Time 2026-05-05 12:52
Airport Vienna International Airport (LOWW)

Arrival

Time 2026-05-05 14:08
Airport Sofia Airport (LBSF)
Time Latitude Longitude Altitude Speed Heading
2026-05-05 12:26 48.12087 16.55661 616 ft 0 kts 116°
2026-05-05 12:28 48.12087 16.55660 617 ft 0 kts 116°
2026-05-05 12:29 48.12088 16.55660 616 ft 0 kts 116°
2026-05-05 12:42 48.12089 16.55655 621 ft 3 kts 116°
2026-05-05 12:42 48.12103 16.55622 620 ft 4 kts 134°
2026-05-05 12:42 48.12124 16.55600 618 ft 4 kts 171°
2026-05-05 12:43 48.12142 16.55602 623 ft 0 kts 206°
2026-05-05 12:45 48.12133 16.55595 619 ft 5 kts 206°
2026-05-05 12:45 48.12086 16.55561 619 ft 10 kts 206°
2026-05-05 12:45 48.12017 16.55512 614 ft 12 kts 206°
2026-05-05 12:45 48.11934 16.55451 613 ft 14 kts 206°
2026-05-05 12:46 48.11872 16.55523 622 ft 14 kts 113°
2026-05-05 12:46 48.11826 16.55662 621 ft 16 kts 116°
2026-05-05 12:46 48.11776 16.55815 610 ft 17 kts 116°
2026-05-05 12:46 48.11723 16.55980 618 ft 17 kts 116°
2026-05-05 12:47 48.11672 16.56138 617 ft 16 kts 116°
2026-05-05 12:47 48.11621 16.56293 618 ft 17 kts 117°
2026-05-05 12:47 48.11570 16.56450 615 ft 17 kts 116°
2026-05-05 12:47 48.11519 16.56606 617 ft 17 kts 116°
2026-05-05 12:48 48.11468 16.56763 620 ft 17 kts 116°
2026-05-05 12:48 48.11414 16.56927 619 ft 18 kts 116°
2026-05-05 12:48 48.11363 16.57084 615 ft 14 kts 115°
2026-05-05 12:48 48.11322 16.57212 614 ft 14 kts 116°
2026-05-05 12:49 48.11276 16.57351 613 ft 15 kts 116°
2026-05-05 12:49 48.11229 16.57496 611 ft 16 kts 116°
2026-05-05 12:49 48.11184 16.57634 616 ft 15 kts 116°
2026-05-05 12:49 48.11136 16.57778 614 ft 16 kts 117°
2026-05-05 12:50 48.11088 16.57929 619 ft 17 kts 115°
2026-05-05 12:50 48.11036 16.58085 615 ft 17 kts 118°
2026-05-05 12:50 48.10965 16.58218 618 ft 16 kts 138°
2026-05-05 12:50 48.10896 16.58275 623 ft 3 kts 163°
2026-05-05 12:51 48.10885 16.58280 617 ft 8 kts 163°
2026-05-05 12:51 48.10596 16.58403 611 ft 79 kts 164°
2026-05-05 12:51 48.09869 16.58710 620 ft 137 kts 164°
2026-05-05 12:52 48.08899 16.59121 1120 ft 142 kts 166°
2026-05-05 12:52 48.07944 16.59534 1851 ft 143 kts 169°
2026-05-05 12:52 48.06926 16.59967 2295 ft 161 kts 169°
2026-05-05 12:52 48.05779 16.60441 2637 ft 184 kts 168°
2026-05-05 12:53 48.04466 16.60985 3011 ft 206 kts 168°
2026-05-05 12:53 48.03041 16.61575 3535 ft 220 kts 168°
2026-05-05 12:53 48.01515 16.62213 4163 ft 237 kts 168°
2026-05-05 12:53 47.99876 16.62903 4897 ft 248 kts 167°
2026-05-05 12:54 47.96444 16.63300 6695 ft 252 kts 185°
2026-05-05 12:54 47.94673 16.63189 7596 ft 256 kts 185°
2026-05-05 12:54 47.92883 16.63074 8422 ft 263 kts 185°
2026-05-05 12:55 47.91045 16.62956 9374 ft 264 kts 186°
2026-05-05 12:55 47.89817 16.62878 9941 ft 267 kts 185°
2026-05-05 12:55 47.87892 16.62753 10378 ft 288 kts 185°
2026-05-05 12:55 47.85110 16.62728 10928 ft 315 kts 174°
2026-05-05 12:56 47.82948 16.63560 11667 ft 324 kts 168°
2026-05-05 12:56 47.81508 16.64194 12190 ft 327 kts 168°
2026-05-05 12:56 47.79314 16.65179 12958 ft 332 kts 168°
2026-05-05 12:56 47.77085 16.66192 13682 ft 338 kts 168°
2026-05-05 12:57 47.74809 16.67226 14343 ft 343 kts 167°
2026-05-05 12:57 47.72507 16.68273 15036 ft 346 kts 167°
2026-05-05 12:57 47.70212 16.69309 15752 ft 349 kts 167°
2026-05-05 12:57 47.67860 16.70365 16354 ft 355 kts 165°
2026-05-05 12:58 47.65493 16.71430 17019 ft 358 kts 167°
2026-05-05 12:58 47.63088 16.72509 17655 ft 363 kts 165°
2026-05-05 12:58 47.60661 16.73600 18363 ft 364 kts 167°
2026-05-05 12:58 47.58247 16.74682 18900 ft 368 kts 168°
2026-05-05 12:59 47.55735 16.75455 19509 ft 367 kts 176°
2026-05-05 12:59 47.53170 16.75721 19975 ft 372 kts 178°
2026-05-05 12:59 47.50592 16.75958 20478 ft 378 kts 178°
2026-05-05 13:00 47.45292 16.76453 21677 ft 383 kts 177°
2026-05-05 13:00 47.42613 16.76707 22176 ft 388 kts 180°
2026-05-05 13:01 47.34508 16.77498 23855 ft 395 kts 179°
2026-05-05 13:01 47.31745 16.77760 24329 ft 397 kts 179°
2026-05-05 13:01 47.28973 16.78021 24744 ft 401 kts 178°
2026-05-05 13:01 47.26199 16.78279 25123 ft 405 kts 179°
2026-05-05 13:02 47.23377 16.78541 25560 ft 407 kts 180°
2026-05-05 13:02 47.20544 16.78808 25970 ft 410 kts 179°
2026-05-05 13:02 47.17681 16.79083 26384 ft 412 kts 180°
2026-05-05 13:02 47.14811 16.79358 26821 ft 414 kts 180°
2026-05-05 13:03 47.11955 16.79635 27182 ft 417 kts 179°
2026-05-05 13:03 47.09039 16.79917 27556 ft 420 kts 180°
2026-05-05 13:03 47.06098 16.80200 27921 ft 423 kts 179°
2026-05-05 13:03 47.03142 16.80482 28302 ft 426 kts 179°
2026-05-05 13:04 47.00215 16.80759 28666 ft 428 kts 180°
2026-05-05 13:04 46.97227 16.81037 29026 ft 431 kts 180°
2026-05-05 13:04 46.94214 16.81406 29419 ft 435 kts 174°
2026-05-05 13:04 46.91280 16.82498 29764 ft 443 kts 163°
2026-05-05 13:05 46.88478 16.84524 30083 ft 451 kts 150°
2026-05-05 13:05 46.86035 16.87375 30367 ft 459 kts 137°
2026-05-05 13:05 46.83997 16.91045 30675 ft 465 kts 125°
2026-05-05 13:05 46.82471 16.95183 30945 ft 468 kts 118°
2026-05-05 13:06 46.81028 16.99423 31206 ft 471 kts 118°
2026-05-05 13:06 46.79559 17.03719 31451 ft 473 kts 118°
2026-05-05 13:06 46.78075 17.08029 31749 ft 473 kts 119°
2026-05-05 13:06 46.76595 17.12303 32134 ft 471 kts 119°
2026-05-05 13:07 46.75138 17.16514 32520 ft 469 kts 118°
2026-05-05 13:07 46.73664 17.20776 32882 ft 468 kts 119°
2026-05-05 13:07 46.72195 17.25019 33250 ft 467 kts 119°
2026-05-05 13:07 46.70732 17.29241 33622 ft 466 kts 119°
2026-05-05 13:08 46.69290 17.33401 33990 ft 464 kts 118°
2026-05-05 13:08 46.67832 17.37607 34278 ft 464 kts 119°
2026-05-05 13:08 46.66372 17.41814 34596 ft 463 kts 119°
2026-05-05 13:08 46.64930 17.45954 34886 ft 462 kts 119°
2026-05-05 13:09 46.63463 17.50146 35165 ft 462 kts 119°
2026-05-05 13:09 46.61962 17.54286 35416 ft 461 kts 123°
2026-05-05 13:09 46.60197 17.58098 35673 ft 459 kts 127°
2026-05-05 13:09 46.58344 17.61894 35892 ft 459 kts 127°
2026-05-05 13:10 46.54662 17.69452 35955 ft 458 kts 127°
2026-05-05 13:10 46.50977 17.77017 35955 ft 458 kts 127°
2026-05-05 13:11 46.47298 17.84552 35959 ft 458 kts 127°
2026-05-05 13:11 46.43623 17.92048 35958 ft 458 kts 127°
2026-05-05 13:12 46.39913 17.99581 35957 ft 457 kts 127°
2026-05-05 13:12 46.36235 18.07037 35955 ft 457 kts 127°
2026-05-05 13:13 46.32515 18.14575 35961 ft 458 kts 127°
2026-05-05 13:13 46.28805 18.22064 35961 ft 459 kts 127°
2026-05-05 13:14 46.25083 18.29540 35963 ft 458 kts 127°
2026-05-05 13:14 46.21381 18.36943 35965 ft 458 kts 127°
2026-05-05 13:15 46.17646 18.44406 35966 ft 458 kts 127°
2026-05-05 13:15 46.13921 18.51844 35965 ft 458 kts 127°
2026-05-05 13:16 46.10178 18.59287 35956 ft 458 kts 127°
2026-05-05 13:16 46.06449 18.66669 35959 ft 457 kts 127°
2026-05-05 13:17 46.02724 18.74057 35958 ft 458 kts 127°
2026-05-05 13:17 45.98974 18.81473 35958 ft 459 kts 127°
2026-05-05 13:18 45.95208 18.88878 35964 ft 458 kts 127°
2026-05-05 13:18 45.91008 18.95672 35965 ft 456 kts 140°
2026-05-05 13:19 45.86247 19.01740 35966 ft 456 kts 140°
2026-05-05 13:19 45.81525 19.07789 35966 ft 456 kts 140°
2026-05-05 13:20 45.76799 19.13838 35964 ft 456 kts 140°
2026-05-05 13:20 45.72056 19.19880 35964 ft 457 kts 140°
2026-05-05 13:21 45.67313 19.25902 35966 ft 458 kts 140°
2026-05-05 13:21 45.62554 19.31938 35968 ft 458 kts 140°
2026-05-05 13:22 45.57771 19.37988 35968 ft 458 kts 140°
2026-05-05 13:22 45.53005 19.43989 35969 ft 457 kts 140°
2026-05-05 13:23 45.48254 19.49974 35959 ft 458 kts 140°
2026-05-05 13:23 45.43483 19.55974 35970 ft 459 kts 140°
2026-05-05 13:24 45.38667 19.61999 35969 ft 459 kts 140°
2026-05-05 13:24 45.33873 19.67968 35970 ft 459 kts 140°
2026-05-05 13:25 45.29098 19.73920 35969 ft 459 kts 140°
2026-05-05 13:25 45.24289 19.79908 35970 ft 459 kts 140°
2026-05-05 13:26 45.19460 19.85814 35973 ft 460 kts 141°
2026-05-05 13:26 45.14602 19.91700 35974 ft 460 kts 141°
2026-05-05 13:27 45.09751 19.97588 35976 ft 460 kts 140°
2026-05-05 13:27 45.04877 20.03498 35975 ft 461 kts 140°
2026-05-05 13:28 45.00005 20.09400 35975 ft 461 kts 141°
2026-05-05 13:28 44.95145 20.15257 36002 ft 461 kts 141°
2026-05-05 13:29 44.90277 20.21102 36002 ft 461 kts 141°
2026-05-05 13:29 44.85384 20.26976 36001 ft 461 kts 140°
2026-05-05 13:30 44.80519 20.32804 36047 ft 460 kts 141°
2026-05-05 13:30 44.78068 20.35728 36298 ft 460 kts 141°
2026-05-05 13:30 44.75616 20.38647 36561 ft 460 kts 141°
2026-05-05 13:31 44.73189 20.41528 36822 ft 459 kts 141°
2026-05-05 13:31 44.70743 20.44427 36970 ft 460 kts 141°
2026-05-05 13:31 44.65864 20.50205 36994 ft 459 kts 140°
2026-05-05 13:32 44.61006 20.55959 36989 ft 459 kts 140°
2026-05-05 13:32 44.56116 20.61735 36987 ft 459 kts 141°
2026-05-05 13:33 44.51241 20.67467 36986 ft 459 kts 141°
2026-05-05 13:33 44.46332 20.73233 36986 ft 459 kts 140°
2026-05-05 13:34 44.41470 20.78937 36974 ft 459 kts 141°
2026-05-05 13:34 44.36564 20.84666 36973 ft 460 kts 141°
2026-05-05 13:35 44.31653 20.90406 36972 ft 460 kts 141°
2026-05-05 13:35 44.26723 20.96145 36981 ft 460 kts 140°
2026-05-05 13:36 44.21822 21.01836 36984 ft 461 kts 140°
2026-05-05 13:36 44.16880 21.07562 36978 ft 461 kts 141°
2026-05-05 13:37 44.11959 21.13254 36973 ft 461 kts 141°
2026-05-05 13:37 44.09509 21.16089 36816 ft 461 kts 141°
2026-05-05 13:37 44.07032 21.18948 36417 ft 462 kts 141°
2026-05-05 13:38 44.04567 21.21785 35974 ft 463 kts 141°
2026-05-05 13:38 44.02066 21.24659 35540 ft 463 kts 141°
2026-05-05 13:38 43.99605 21.27484 35121 ft 464 kts 141°
2026-05-05 13:38 43.97110 21.30349 34697 ft 464 kts 141°
2026-05-05 13:39 43.94614 21.33210 34290 ft 462 kts 141°
2026-05-05 13:39 43.92136 21.36047 33863 ft 459 kts 141°
2026-05-05 13:39 43.89705 21.38826 33402 ft 456 kts 141°
2026-05-05 13:39 43.87255 21.41620 32943 ft 453 kts 141°
2026-05-05 13:40 43.84822 21.44396 32501 ft 450 kts 140°
2026-05-05 13:40 43.82427 21.47130 32063 ft 448 kts 140°
2026-05-05 13:40 43.80024 21.49874 31629 ft 445 kts 140°
2026-05-05 13:40 43.77634 21.52601 31195 ft 442 kts 140°
2026-05-05 13:41 43.75297 21.55261 30778 ft 439 kts 140°
2026-05-05 13:41 43.72940 21.57940 30361 ft 436 kts 140°
2026-05-05 13:41 43.70624 21.60568 29941 ft 433 kts 140°
2026-05-05 13:41 43.68401 21.63352 29452 ft 429 kts 132°
2026-05-05 13:42 43.66476 21.66467 28988 ft 425 kts 128°
2026-05-05 13:42 43.64585 21.69631 28512 ft 423 kts 128°
2026-05-05 13:42 43.62728 21.72728 28064 ft 420 kts 128°
2026-05-05 13:42 43.60859 21.75844 27616 ft 417 kts 128°
2026-05-05 13:43 43.59007 21.78924 27176 ft 414 kts 128°
2026-05-05 13:43 43.57198 21.81928 26736 ft 411 kts 128°
2026-05-05 13:43 43.55370 21.84960 26301 ft 408 kts 128°
2026-05-05 13:43 43.53555 21.87968 25876 ft 405 kts 128°
2026-05-05 13:44 43.51781 21.90899 25465 ft 402 kts 128°
2026-05-05 13:44 43.49991 21.93860 25053 ft 399 kts 128°
2026-05-05 13:44 43.48214 21.96803 24648 ft 396 kts 128°
2026-05-05 13:44 43.46477 21.99676 24251 ft 393 kts 128°
2026-05-05 13:45 43.44724 22.02571 23853 ft 391 kts 128°
2026-05-05 13:45 43.42987 22.05434 23442 ft 388 kts 128°
2026-05-05 13:45 43.41254 22.08285 22974 ft 385 kts 128°
2026-05-05 13:45 43.39552 22.11078 22518 ft 382 kts 129°
2026-05-05 13:46 43.37840 22.13883 22063 ft 379 kts 129°
2026-05-05 13:46 43.36170 22.16615 21623 ft 377 kts 129°
2026-05-05 13:46 43.34487 22.19368 21192 ft 374 kts 128°
2026-05-05 13:46 43.32816 22.22104 20758 ft 371 kts 128°
2026-05-05 13:47 43.31165 22.24814 20328 ft 369 kts 128°
2026-05-05 13:47 43.29526 22.27500 19913 ft 366 kts 129°
2026-05-05 13:47 43.27891 22.30176 19501 ft 364 kts 129°
2026-05-05 13:47 43.26277 22.32811 19098 ft 361 kts 129°
2026-05-05 13:48 43.24671 22.35429 18697 ft 359 kts 129°
2026-05-05 13:48 43.23060 22.38058 18294 ft 357 kts 129°
2026-05-05 13:48 43.21469 22.40653 17842 ft 355 kts 129°
2026-05-05 13:48 43.19901 22.43203 17395 ft 353 kts 129°
2026-05-05 13:49 43.18331 22.45749 16944 ft 347 kts 129°
2026-05-05 13:49 43.16780 22.48258 16496 ft 343 kts 129°
2026-05-05 13:49 43.15239 22.50749 16070 ft 341 kts 129°
2026-05-05 13:49 43.13721 22.53209 15648 ft 338 kts 129°
2026-05-05 13:50 43.12210 22.55659 15270 ft 335 kts 129°
2026-05-05 13:50 43.10707 22.58095 15024 ft 334 kts 129°
2026-05-05 13:50 43.09210 22.60517 14776 ft 333 kts 129°
2026-05-05 13:50 43.07709 22.62939 14538 ft 332 kts 129°
2026-05-05 13:51 43.06236 22.65315 14303 ft 331 kts 129°
2026-05-05 13:51 43.04748 22.67715 14062 ft 330 kts 129°
2026-05-05 13:51 43.03264 22.70112 13829 ft 329 kts 129°
2026-05-05 13:51 43.01789 22.72489 13566 ft 327 kts 129°
2026-05-05 13:52 43.00321 22.74851 13299 ft 325 kts 129°
2026-05-05 13:52 42.98858 22.77202 13071 ft 323 kts 130°
2026-05-05 13:52 42.97421 22.79516 13006 ft 322 kts 130°
2026-05-05 13:52 42.95965 22.81852 13020 ft 322 kts 129°
2026-05-05 13:53 42.94507 22.84184 13015 ft 322 kts 130°
2026-05-05 13:53 42.93060 22.86489 13018 ft 323 kts 129°
2026-05-05 13:53 42.91593 22.88824 13016 ft 323 kts 130°
2026-05-05 13:53 42.90128 22.91158 13015 ft 323 kts 130°
2026-05-05 13:54 42.88659 22.93493 13018 ft 322 kts 130°
2026-05-05 13:54 42.87216 22.95779 13022 ft 322 kts 130°
2026-05-05 13:54 42.85742 22.98114 13018 ft 322 kts 130°
2026-05-05 13:54 42.84279 23.00431 13019 ft 322 kts 130°
2026-05-05 13:55 42.82835 23.02718 13023 ft 322 kts 130°
2026-05-05 13:55 42.81368 23.05044 12964 ft 323 kts 130°
2026-05-05 13:55 42.79898 23.07372 12754 ft 322 kts 130°
2026-05-05 13:55 42.78458 23.09650 12558 ft 320 kts 130°
2026-05-05 13:56 42.76993 23.11964 12349 ft 319 kts 130°
2026-05-05 13:56 42.75556 23.14234 12148 ft 318 kts 130°
2026-05-05 13:56 42.74104 23.16529 11946 ft 318 kts 130°
2026-05-05 13:56 42.72671 23.18790 11747 ft 317 kts 130°
2026-05-05 13:57 42.71241 23.21044 11546 ft 316 kts 130°
2026-05-05 13:57 42.69795 23.23325 11354 ft 317 kts 130°
2026-05-05 13:57 42.68359 23.25588 11160 ft 315 kts 130°
2026-05-05 13:57 42.66926 23.27839 10961 ft 315 kts 130°
2026-05-05 13:58 42.65513 23.30057 10770 ft 313 kts 130°
2026-05-05 13:58 42.64085 23.32298 10572 ft 314 kts 129°
2026-05-05 13:58 42.62815 23.34685 10298 ft 310 kts 119°
2026-05-05 13:58 42.62175 23.36420 10058 ft 308 kts 111°
2026-05-05 13:59 42.61275 23.41901 9568 ft 292 kts 93°
2026-05-05 13:59 42.61059 23.45544 9052 ft 289 kts 94°
2026-05-05 14:00 42.60729 23.50929 8430 ft 284 kts 92°
2026-05-05 14:00 42.60617 23.52725 8226 ft 282 kts 92°
2026-05-05 14:00 42.60453 23.55339 7926 ft 277 kts 93°
2026-05-05 14:00 42.60290 23.57929 7625 ft 272 kts 93°
2026-05-05 14:01 42.60129 23.60467 7326 ft 267 kts 92°
2026-05-05 14:01 42.59973 23.62951 7038 ft 262 kts 92°
2026-05-05 14:01 42.59822 23.65371 6750 ft 258 kts 93°
2026-05-05 14:01 42.59672 23.67782 6462 ft 253 kts 93°
2026-05-05 14:02 42.59524 23.70144 6160 ft 249 kts 92°
2026-05-05 14:02 42.59391 23.72446 5992 ft 239 kts 88°
2026-05-05 14:02 42.59667 23.74561 5860 ft 225 kts 64°
2026-05-05 14:02 42.60505 23.76267 5685 ft 215 kts 43°
2026-05-05 14:03 42.61748 23.77343 5368 ft 212 kts 20°
2026-05-05 14:03 42.63204 23.77647 5044 ft 212 kts 357°
2026-05-05 14:03 42.64610 23.77157 4752 ft 213 kts 335°
2026-05-05 14:03 42.65792 23.75923 4414 ft 217 kts 311°
2026-05-05 14:04 42.66513 23.74111 4137 ft 218 kts 287°
2026-05-05 14:04 42.66892 23.72136 4075 ft 219 kts 287°
2026-05-05 14:04 42.67297 23.70100 4080 ft 222 kts 288°
2026-05-05 14:04 42.67707 23.68062 4082 ft 224 kts 287°
2026-05-05 14:05 42.68108 23.66045 4079 ft 226 kts 286°
2026-05-05 14:05 42.68289 23.63931 4088 ft 223 kts 278°
2026-05-05 14:05 42.68411 23.61884 4079 ft 210 kts 278°
2026-05-05 14:05 42.68531 23.59923 3968 ft 207 kts 277°
2026-05-05 14:06 42.68650 23.58001 3744 ft 205 kts 277°
2026-05-05 14:06 42.68770 23.56056 3521 ft 202 kts 277°
2026-05-05 14:06 42.68886 23.54179 3240 ft 200 kts 277°
2026-05-05 14:06 42.68998 23.52351 2978 ft 188 kts 277°
2026-05-05 14:07 42.69101 23.50654 2742 ft 174 kts 277°
2026-05-05 14:07 42.69198 23.49062 2506 ft 165 kts 278°
2026-05-05 14:07 42.69291 23.47566 2319 ft 153 kts 276°
2026-05-05 14:07 42.69377 23.46173 2115 ft 147 kts 277°
2026-05-05 14:08 42.69463 23.44798 1914 ft 145 kts 275°
2026-05-05 14:08 42.69544 23.43435 1765 ft 137 kts 276°
2026-05-05 14:08 42.69615 23.42281 1750 ft 109 kts 275°
2026-05-05 14:08 42.69620 23.41688 1743 ft 37 kts 253°
2026-05-05 14:09 42.69561 23.41497 1750 ft 8 kts 242°
2026-05-05 14:09 42.69540 23.41435 1746 ft 7 kts 246°
2026-05-05 14:09 42.69516 23.41363 1746 ft 11 kts 245°
2026-05-05 14:09 42.69482 23.41253 1742 ft 12 kts 247°
2026-05-05 14:10 42.69417 23.41202 1750 ft 11 kts 192°
2026-05-05 14:10 42.69349 23.41182 1741 ft 9 kts 192°
2026-05-05 14:10 42.69279 23.41161 1748 ft 14 kts 192°
2026-05-05 14:10 42.69176 23.41131 1748 ft 13 kts 192°
2026-05-05 14:11 42.69120 23.41056 1742 ft 11 kts 250°
2026-05-05 14:11 42.69096 23.40958 1742 ft 10 kts 252°
2026-05-05 14:11 42.69076 23.40872 1746 ft 9 kts 252°
2026-05-05 14:11 42.69059 23.40796 1743 ft 8 kts 256°
2026-05-05 14:12 42.69068 23.40710 1747 ft 10 kts 285°
2026-05-05 14:12 42.69058 23.40653 1743 ft 4 kts 206°
2026-05-05 14:12 42.69033 23.40644 1748 ft 3 kts 195°
2026-05-05 14:12 42.69013 23.40636 1747 ft 2 kts 196°
2026-05-05 14:13 42.69010 23.40635 1747 ft 0 kts 196°
2026-05-05 14:16 42.69010 23.40633 1748 ft 0 kts 196°